Location: G?julap?du
(16.5372°N, 81.0979°E)
Time: 09:56:37
(UTC+00:00)

Cosmos 2341 Rocket - Pass Details

Date: 14 April 2026
Orbit: 968 x 1002 km, 82.9° (Epoch: 12 May)

Event Time Altitude Azimuth Distance (km) Brightness Sun altitude
Exits shadow 15:05:55 29° 210° (SSW) 1,696 5.2 -31.9°
Maximum altitude 15:09:00 56° 275° (W) 1,143 4.5 -32.6°
Drops below altitude 10° 15:15:06 10° 353° (N) 2,722 6.6 -33.9°
Sets 15:17:40 0° 357° (N) 3,676 7.3 -34.5°
